Regional Weather Roundup
Issued by NWS

Home | Current Version | Previous Version | Text Only | Print | Product List | Glossary Off
Versions: 1 2 3 4 5 6 7 8 9 10 11 12 13 14 15 16 17 18 19 20 21 22 23 24 25 26 27 28 29 30 31 32 33 34 35 36 37 38 39 40 41 42 43 44 45 46 47 48 49 50

514
ASUS45 KBOU 270707
RWRCO

WEATHER ROUNDUP FOR COLORADO
NATIONAL WEATHER SERVICE DENVER/BOULDER CO
100 AM MDT TUE JUN 27 2017

NOTE: "FAIR" INDICATES FEW OR NO CLOUDS BELOW 12000 FEET WITH NO
SIGNIFICANT WEATHER AND/OR OBSTRUCTIONS TO VISIBILITY.

COZ001>005-013-030-031-270800-
...NORTHWEST COLORADO...

CITY           SKY/WX    TMP DP  RH WIND       PRES   REMARKS
CRAIG          FAIR      61  38  42 E5        30.10S
HAYDEN         FAIR      59  36  41 S5        30.13S
MEEKER         FAIR      58  36  43 NE6       30.12S
RABBIT EARS PA FAIR      55  27  33 SW3       30.44F
STEAMBOAT SPGS FAIR      55  36  49 CALM      30.16R
WALDEN         FAIR      52  32  46 SE8       30.25F
$$

COZ006>008-011-270800-
...WEST CENTRAL VALLEYS...

CITY           SKY/WX    TMP DP  RH WIND       PRES   REMARKS
GRAND JUNCTION FAIR      76  28  17 E10       29.96S
MONTROSE       FAIR      71  32  23 SE9       30.07F
EAGLE          FAIR      58  31  35 S5        30.18F
RIFLE          FAIR      67  31  26 E3        30.06S
DELTA          FAIR      71  19  13 E6        30.03S
NUCLA          FAIR      72  30  21 E6        30.12S
$$

COZ017>023-064>068-270800-
...SOUTHWEST COLORADO...

CITY           SKY/WX    TMP DP  RH WIND       PRES   REMARKS
DURANGO        FAIR      54  37  52 SE3       30.23R
CORTEZ         FAIR      63  39  41 CALM      30.12S
PAGOSA SPRINGS FAIR      58  29  33 CALM      30.34R
TELLURIDE      CLOUDY    60  31  32 SE7       30.40S
WOLF CREEK PAS FAIR      45  30  57 SW17G23   30.66F
$$

COZ009-010-012-014-032>034-037-058>063-270800-
...CENTRAL COLORADO...

CITY           SKY/WX    TMP DP  RH WIND       PRES   REMARKS
ASPEN          FAIR      52  30  43 S8        30.25S
BUENA VISTA    FAIR      51  36  55 W7        30.33F
COPPER MTN     FAIR      54  36  50 S12       30.59S
BERTHOUD PASS  FAIR      43  30  61 W10       30.60F
COTTONWOOD PAS FAIR      57  34  41 W3        30.45F
GUNNISON       FAIR      54  35  48 N7        30.28R
KREMMLING      NOT AVBL
LEADVILLE      FAIR      45  35  68 NE6       30.43F
SALIDA         FAIR      59  37  44 W10       30.37F
SUNLIGHT       FAIR      54  18  24 CALM      30.50F
WILKERSON PASS FAIR      48  32  53 SW9G18    30.56F
$$

COZ069>075-270800-
...SAN LUIS VALLEY/SANGRE DE CRISTO MOUNTAINS...

CITY           SKY/WX    TMP DP  RH WIND       PRES   REMARKS
ALAMOSA        FAIR      50  41  71 SE8       30.30S
DEL NORTE      FAIR      50  40  69 W10       30.34S
LA VETA PASS   FAIR      46  34  61 S13G23    30.60F
SAGUACHE       FAIR      54  34  47 CALM      30.34S
$$

COZ035-036-038>040-270800-
...NORTHERN COLORADO FRONT RANGE...

CITY           SKY/WX    TMP DP  RH WIND       PRES   REMARKS
DENVER INTL AP FAIR      64  44  48 S15       30.08F
DMNS CITY PARK   N/A     66  46  48 W2        30.08S
AURORA         PTCLDY    67  44  43 S14       30.11F
FRONT RANGE AP FAIR      68  43  40 SE14G24   30.11F
ERIE MUNI ARPT FAIR      61  50  66 CALM      30.08S
BOULDER MUN AP FAIR      64  50  59 CALM      30.09F
CENTENNIAL     FAIR      64  46  52 S12       30.13F
BROOMFIELD     FAIR      64  48  55 NW12      30.11F
FORT COLLINS   FAIR      63  54  72 NE5       30.09F
LONGMONT       FAIR      66  53  63 N7        30.10F
$$

COZ041-046-047-076>085-087-088-270800-
...PIKES PEAK/PALMER DIVIDE AND SOUTHERN FOOTHILLS...

CITY           SKY/WX    TMP DP  RH WIND       PRES   REMARKS
COLO. SPRINGS  FAIR      60  46  59 E8        30.22F
A. F. ACADEMY  FAIR      57  46  66 CALM      30.22F
SCHRIEVER AFB  FAIR      58  45  63 CALM      30.22F
CHEYENNE MTN   FAIR      66  36  33 S9G21     30.20F
ELLICOTT       FAIR     N/A N/A N/A W3        30.20F
FALCON           N/A     55  41  61 CALM      30.26F
FORT CARSON    FAIR      61  43  51 CALM      30.18F
LIMON          FAIR      56  54  93 SE6       30.16F
MONUMENT HILL  FAIR      55  39  54 S13       30.25F
CANON CITY     CLEAR     63  46  55 W7        30.16S
WALSENBURG     FAIR      66  43  42 S12G20    30.21F
TRINIDAD       FAIR      63  44  50 SW10      30.23F
$$

COZ042>045-048>051-090-091-270800-
...NORTHEAST COLORADO...

CITY           SKY/WX    TMP DP  RH WIND       PRES   REMARKS
GREELEY ARPT   FAIR      63  56  78 E9        30.07F
AKRON          FAIR      59  56  89 SE15      30.12F
BURLINGTON     FAIR      62  60  93 SE15      30.11F
WRAY           FAIR      61  54  77 SE10      30.12F
YUMA           FAIR      57  50  77 SE10      30.11F
STERLING       FAIR      63  54  72 SE10G17   30.08F
HOLYOKE        NOT AVBL
FORT MORGAN    FAIR      62  55  75 SE12      30.10F
$$

COZ086-089-092>099-270800-
...SOUTHEAST COLORADO...

CITY           SKY/WX    TMP DP  RH WIND       PRES   REMARKS
PUEBLO         FAIR      70  46  42 SW10G21   30.11F
LA JUNTA       FAIR      71  45  39 S10       30.05F
LAMAR          FAIR      68  56  65 E9        30.04S
SPRINGFIELD      N/A     69  53  56 S12       30.07S
$$




USA.gov is the U.S. government's official web portal to all federal, state and local government web resources and services.